Weather History for Anchorage Merrill, AK

Change the Weather History Date:

Monday, February 17, 2014

  Actual Average Record
Temperature  
Mean Temperature 16 °F -  
Max Temperature 21 °F 28 °F 21 °F (2014)
Min Temperature 10 °F 15 °F 10 °F (2014)
Degree Days  
Heating Degree Days 50    
Moisture  
Dew Point 11 °F    
Average Humidity 78    
Maximum Humidity 88    
Minimum Humidity 58    
Precipitation  
Precipitation 0.02 in - - ()
Snow  
Snow 0.00 in - - ()
Snow Depth 6.00 in    
Sea Level Pressure  
Sea Level Pressure 29.10 in    
Wind  
Wind Speed 0 mph (ENE)    
Max Wind Speed 4 mph    
Max Gust Speed -    
Visibility 9 miles    
Events Snow    
Averages and records for this station are not official NWS values.
T = Trace of Precipitation, MM = Missing Value Source: NWS Daily Summary

Daily Weather History Graph

Daily Weather History Graph

Search for Another Location

Airport:

Trip Planner

Search our weather history database for the weather conditions in past years. The results will help you decide how hot, cold, wet, or windy it might be!

Date:

Astronomy

Feb. 17, 2014 Rise Set
Actual Time 8:35 AM AKST 5:52 PM AKST
Civil Twilight 7:50 AM AKST 6:37 PM AKST
Nautical Twilight 6:59 AM AKST 7:28 PM AKST
Astronomical Twilight 6:09 AM AKST 8:18 PM AKST
Moon 10:01 PM AKST (2/17) 8:45 AM AKST (2/17)
Length of Visible Light 10h 47m
Length of Day
9h 17m
Waning Gibbous, 92% of the Moon is Illuminated
Feb 17
Waning Gibbous
Feb 22
Last Quarter
Feb 28
New
Mar 8
First Quarter
Mar 16
Full

Hourly Weather History & Observations

Time (AKST) Temp. Windchill Dew Point Humidity Pressure Visibility Wind Dir Wind Speed Gust Speed Precip Events Conditions
12:53 AM 17.1 °F - 10.9 °F 77% 29.06 in 10.0 mi Calm Calm - N/A   Overcast
1:53 AM 19.0 °F - 12.0 °F 74% 29.07 in 10.0 mi Calm Calm - N/A   Overcast
2:40 AM 19.4 °F - 12.2 °F 74% 29.06 in 5.0 mi Calm Calm - 0.00 in Snow Light Snow
3:53 AM 19.0 °F - 15.1 °F 85% 29.07 in 3.0 mi Calm Calm - 0.02 in Snow Light Snow
4:53 AM 18.0 °F - 14.0 °F 84% 29.06 in 6.0 mi Calm Calm - 0.00 in Snow Light Snow
5:53 AM 17.1 °F - 14.0 °F 88% 29.05 in 10.0 mi Calm Calm - 0.00 in Snow Light Snow
6:53 AM 16.0 °F - 10.9 °F 81% 29.03 in 10.0 mi Calm Calm - 0.00 in Snow Light Snow
7:00 AM 15.8 °F - 10.4 °F 79% 29.02 in 10.0 mi North - - 0.00 in Snow Light Snow
7:53 AM 15.1 °F - 10.0 °F 80% 29.03 in 10.0 mi North - - 0.00 in Snow Light Snow
8:53 AM 17.1 °F - 12.9 °F 84% 29.03 in 10.0 mi North - - 0.00 in   Overcast
9:53 AM 16.0 °F - 12.0 °F 84% 29.05 in 10.0 mi North - - N/A   Overcast
10:05 AM 17.6 °F - 12.2 °F 79% 29.04 in 10.0 mi North - - N/A   Mostly Cloudy
10:53 AM 14.0 °F - 10.0 °F 84% 29.05 in 10.0 mi North - - N/A   Mostly Cloudy
11:53 AM 15.1 °F - 10.0 °F 80% 29.06 in 10.0 mi Calm Calm - N/A   Mostly Cloudy
12:53 PM 19.9 °F - 12.9 °F 74% 29.07 in 10.0 mi Calm Calm - N/A   Overcast
1:53 PM 21.9 °F - 14.0 °F 72% 29.08 in 10.0 mi Calm Calm - N/A   Overcast
2:53 PM 21.9 °F - 12.9 °F 68% 29.09 in 10.0 mi Calm Calm - N/A   Overcast
3:53 PM 21.9 °F - 9.0 °F 58% 29.10 in 10.0 mi Calm Calm - N/A   Partly Cloudy
4:53 PM 21.0 °F - 9.0 °F 60% 29.11 in 10.0 mi Calm Calm - N/A   Partly Cloudy
5:53 PM 15.1 °F - 7.0 °F 70% 29.13 in 10.0 mi Calm Calm - N/A   Clear
6:53 PM 15.1 °F - 9.0 °F 77% 29.16 in 10.0 mi Calm Calm - N/A   Clear
7:53 PM 16.0 °F - 10.9 °F 81% 29.18 in 10.0 mi Calm Calm - N/A   Clear
8:53 PM 10.0 °F 3.6 °F 6.1 °F 84% 29.21 in 9.0 mi East 3.5 mph - N/A   Clear
9:53 PM 10.9 °F 4.7 °F 7.0 °F 84% 29.23 in 10.0 mi East 3.5 mph - N/A   Mostly Cloudy
10:53 PM 10.0 °F 3.6 °F 6.1 °F 84% 29.25 in 10.0 mi NNE 3.5 mph - N/A   Mostly Cloudy
11:53 PM 10.9 °F - 7.0 °F 84% 29.26 in 10.0 mi Calm Calm - N/A   Overcast